This demonstration page uses our WeatherBlox Daily Observations layout. Learn more.

Left ArrowRight Arrow

Hourly Observations for June 21, 2021

Temp ( °F °C ) Dew Point ( °F °C ) Humidity (%) Winds ( mph kmh ) Pressure ( in mb ) Visibility ( mi km ) Precip ( " mm )
12:56 am 00:56 Clear 66 18.9 50 10 56 56 NNW 14 22 29.90 1012 10 16 0.00 0.00
1:56 am 01:56 Clear 65 18.3 50 10 59 59 N 10 17 29.91 1013 10 16 0.00 0.00
2:56 am 02:56 Mostly Clear 64 17.8 50 10 60 60 NNW 15 24 29.94 1014 10 16 0.00 0.00
3:56 am 03:56 Mostly Cloudy 64 17.8 50 10 60 60 N 14 22 29.98 1015 10 16 0.00 0.00
4:56 am 04:56 Mostly Cloudy 62 16.7 51 10.6 67 67 NNW 7 11 30.00 1016 10 16 0.00 0.00
5:56 am 05:56 Clear 61 16.1 51 10.6 70 70 NNW 6 9 30.03 1017 10 16 0.00 0.00
6:56 am 06:56 Mostly Cloudy 60 15.6 51 10.6 72 72 NW 7 11 30.05 1018 10 16 0.00 0.00
7:38 am 07:38 Hazy 61 16 52 11 72 72 NNW 8 13 30.06 1018 2 3 0.00 0.00
7:46 am 07:46 Hazy 63 17 54 12 73 73 NNW 8 13 30.05 1018 2 3 0.00 0.00
7:56 am 07:56 Hazy 62 16.7 52 11.1 70 70 NNW 8 13 30.06 1018 4 6 0.00 0.00
8:14 am 08:14 Hazy 63 17 52 11 68 68 N 8 13 30.05 1018 2 3 0.00 0.00
8:17 am 08:17 Mostly Cloudy with Haze 63 17 52 11 68 68 NNW 9 15 30.05 1018 1 2 0.00 0.00
8:19 am 08:19 Mostly Cloudy with Haze 63 17 52 11 68 68 NNW 9 15 30.05 1018 1 1 0.00 0.00
8:27 am 08:27 Hazy 63 17 52 11 68 68 NNW 9 15 30.05 1018 2 3 0.00 0.00
8:32 am 08:32 Mostly Cloudy with Haze 64 18 52 11 64 64 N 8 13 30.05 1018 1 1 0.00 0.00
8:39 am 08:39 Mostly Cloudy with Haze 64 18 52 11 64 64 N 9 15 30.05 1018 1 2 0.00 0.00
8:46 am 08:46 Mostly Cloudy with Haze 64 18 52 11 64 64 NNW 8 13 30.05 1018 1 1 0.00 0.00
8:53 am 08:53 Hazy 64 18 52 11 64 64 N 8 13 30.05 1018 2 2 0.00 0.00
8:56 am 08:56 Hazy 65 18.3 51 10.6 61 61 N 10 17 30.07 1018 6 10 0.00 0.00
9:56 am 09:56 Sunny 68 20 51 10.6 55 55 N 7 11 30.08 1019 10 16 0.00 0.00
10:56 am 10:56 Sunny 69 20.6 49 9.4 49 49 N 5 7 30.07 1018 9 14 0.00 0.00
11:56 am 11:56 Mostly Cloudy 71 21.7 49 9.4 46 46 N 5 7 30.07 1018 9 14 0.00 0.00
12:56 pm 12:56 Partly Cloudy 73 22.8 47 8.3 40 40 WNW 12 19 30.07 1018 10 16 0.00 0.00
1:56 pm 13:56 Mostly Cloudy 73 22.8 46 7.8 38 38 NW 12 19 30.05 1018 10 16 0.00 0.00
2:56 pm 14:56 Sunny 75 23.9 46 7.8 36 36 NW 13 20 30.03 1017 10 16 0.00 0.00
3:56 pm 15:56 Mostly Sunny 77 25 44 6.7 31 31 WNW 14 22 30.01 1016 8 13 0.00 0.00
4:56 pm 16:56 Mostly Sunny 78 25.6 46 7.8 32 32 NW 13 20 29.99 1016 10 16 0.00 0.00
5:56 pm 17:56 Mostly Sunny 78 25.6 48 8.9 35 35 WNW 13 20 29.98 1015 8 13 0.00 0.00
6:56 pm 18:56 Sunny 77 25 47 8.3 35 35 NW 7 11 29.96 1015 8 13 0.00 0.00
7:56 pm 19:56 Sunny 77 25 48 8.9 36 36 WNW 3 6 29.96 1014 10 16 0.00 0.00
8:56 pm 20:56 Sunny 74 23.3 50 10 43 43 W 6 9 29.96 1015 10 16 0.00 0.00
9:56 pm 21:56 Clear 69 20.6 48 8.9 47 47 NNE 3 6 29.98 1015 10 16 0.00 0.00
10:56 pm 22:56 Clear 66 18.9 49 9.4 54 54 Calm 29.98 1015 10 16 0.00 0.00
11:56 pm 23:56 Clear 64 17.8 51 10.6 63 63 Calm 29.97 1015 10 16 0.00 0.00

Powered by AerisWeather